Left ArrowRight Arrow

30.00354, -91.81873

Hourly Observations for June 18, 2024

Temp ( °F °C ) Dew Point ( °F °C ) Humidity (%) Winds ( mph kmh ) Pressure ( in mb ) Visibility ( mi km ) Precip ( " mm )
12:53 am 00:53 Mostly Clear with Light Rain 77 25 75 23.9 94 94 E 13 20 29.92 1013 10 16 0.01 0.13
1:53 am 01:53 Partly Cloudy with Light Rain 77 25 76 24.4 96 96 ESE 13 20 29.90 1013 10 16 0.01 0.13
2:53 am 02:53 Partly Cloudy with Light Rain 76 24.4 74 23.3 94 94 ESE 12 19 29.87 1012 10 16 0.01 0.13
3:53 am 03:53 Clear 75 23.9 73 22.8 94 94 E 5 7 29.86 1011 10 16 0.01 0.13
4:53 am 04:53 Partly Cloudy 75 23.9 73 22.8 94 94 ENE 7 11 29.85 1011 10 16 0.00 0.00
6:20 am 06:20 Mostly Sunny 76 24.4 75 23.9 97 97 ENE 8 13 29.86 1011 10 16 0.00 0.00
6:53 am 06:53 Sunny 76 24.4 75 23.9 97 97 ENE 9 15 29.86 1011 10 16 0.00 0.00
7:17 am 07:17 Partly Cloudy 76 24.4 75 23.9 97 97 ENE 8 13 29.87 1011 9 14 0.00 0.00
7:32 am 07:32 Mostly Cloudy 77 25 75 23.9 94 94 ENE 9 15 29.87 1011 9 14 0.00 0.00
7:53 am 07:53 Mostly Cloudy 78 25.6 76 24.4 93 93 ENE 10 17 29.87 1012 9 14 0.00 0.00
8:21 am 08:21 Cloudy 78 25.6 77 25 96 96 ENE 9 15 29.88 1012 10 16 0.00 0.00
8:53 am 08:53 Mostly Cloudy 80 26.7 77 25 90 90 ENE 7 11 29.88 1012 10 16 0.00 0.00
9:20 am 09:20 Cloudy 81 27.2 77 25 88 88 ENE 7 11 29.89 1012 10 16 0.00 0.00
9:53 am 09:53 Mostly Cloudy 82 27.8 78 25.6 88 88 E 14 22 29.89 1012 10 16 0.00 0.00
10:53 am 10:53 Cloudy with Light Rain 81 27.2 77 25 88 88 E 10 17 29.90 1012 10 16 0.01 0.13
11:53 am 11:53 Cloudy with Light Rain 82 27.8 78 25.6 88 88 E 13 20 29.90 1013 10 16 0.01 0.13
12:53 pm 12:53 Cloudy with Light Rain 80 26.7 78 25.6 94 94 E 10 17 29.90 1013 7 11 0.02 0.51
1:00 pm 13:00 Mostly Cloudy with Light Rain 80 26.7 78 25.6 94 94 E 13 20 29.90 1012 7 11 0.01 0.13
1:53 pm 13:53 Mostly Cloudy with Light Rain 81 27.2 78 25.6 91 91 ENE 10 17 29.90 1013 9 14 0.01 0.13
2:53 pm 14:53 Cloudy with Light Rain 81 27.2 77 25 88 88 E 10 17 29.90 1013 10 16 0.01 0.13
3:53 pm 15:53 Cloudy with Light Rain 80 26.7 76 24.4 87 87 E 14 22 29.89 1012 10 16 0.01 0.13
4:53 pm 16:53 Mostly Cloudy 81 27.2 73 22.8 77 77 E 20 31 29.89 1012 10 16 0.01 0.13
5:53 pm 17:53 Cloudy 78 25.6 72 22.2 82 82 ENE 14 22 29.88 1012 10 16 0.00 0.00
6:53 pm 18:53 Partly Cloudy with Light Rain 78 25.6 73 22.8 85 85 ENE 9 15 29.90 1013 10 16 0.01 0.13
7:53 pm 19:53 Mostly Sunny 78 25.6 75 23.9 90 90 NE 10 17 29.90 1013 10 16 0.01 0.13
8:53 pm 20:53 Cloudy 78 25.6 75 23.9 90 90 ENE 12 19 29.90 1012 10 16 0.01 0.13
9:53 pm 21:53 Partly Cloudy 78 25.6 74 23.3 87 87 ENE 13 20 29.91 1013 10 16 0.00 0.00
10:53 pm 22:53 Partly Cloudy 78 25.6 73 22.8 85 85 ENE 9 15 29.91 1013 10 16 0.00 0.00
11:53 pm 23:53 Clear 77 25 73 22.8 88 88 ENE 9 15 29.91 1013 10 16 0.00 0.00

Powered by Vaisala Xweather